Weather reports worldwide

Advertisment
Tain Range, United Kingdom (3062): temperature & dewpoint: 20.09.2018 04:00:00 - 26.09.2018 04:00:00 (BST)Tain Range, United Kingdom (3062): temperature -20cm & temperature -100cm: 20.09.2018 04:00:00 - 26.09.2018 04:00:00 (BST)Tain Range, United Kingdom (3062): wind speed & gusts: 20.09.2018 04:00:00 - 26.09.2018 04:00:00 (BST)Tain Range, United Kingdom (3062): wind direction: 20.09.2018 04:00:00 - 26.09.2018 04:00:00 (BST)Tain Range, United Kingdom (3062): reduced air pressure: 20.09.2018 04:00:00 - 26.09.2018 04:00:00 (BST)Tain Range, United Kingdom (3062): visibility: 20.09.2018 04:00:00 - 26.09.2018 04:00:00 (BST)Tain Range, United Kingdom (3062): precipitation: 20.09.2018 04:00:00 - 26.09.2018 04:00:00 (BST)
Date & Time tt [°C] td [°C] tt -20cm [°C] tt -100cm [°C] ff [km/h] ff [kn] fx [km/h] fx [kn] dd ppp [hPa] vv [km] rr [mm]
26.09.2018 04:00:00 - - - - - - - - - - - -
26.09.2018 03:00:00 17,2 12,4 - - 41 22 63 34 WSW 1011,5 50 0,0
26.09.2018 02:00:00 16,4 13,2 - - 11 6 - - WSW 1011,8 50 0,0
26.09.2018 01:00:00 14,9 12,1 - - 21 11 - - S 1012,9 50 0,0
26.09.2018 00:00:00 14,7 11,7 - - 31 17 55 30 SSW 1013,3 50 0,0
25.09.2018 23:00:00 13,9 11,3 - - 39 21 57 31 SSW 1013,9 40 0,0
25.09.2018 22:00:00 13,4 10,9 - - 34 18 63 34 SW 1014,4 50 0,0
25.09.2018 21:00:00 13,5 10,3 - - 44 24 57 31 SSW 1014,2 50 0,0
25.09.2018 20:00:00 13,0 9,5 - - 29 16 54 29 SW 1014,8 50 0,0
25.09.2018 19:00:00 12,8 9,1 - - 41 22 72 39 SSW 1015,6 50 0,0
25.09.2018 18:00:00 12,8 8,5 - - 52 28 74 40 SSW 1015,5 50 0,0
25.09.2018 17:00:00 12,8 7,5 - - 31 17 63 34 SW 1017,8 50 0,0
25.09.2018 16:00:00 12,5 6,9 - - 39 21 63 34 SW 1018,5 45 0,0
25.09.2018 15:00:00 12,5 7,3 - - 28 15 68 37 SSW 1019,7 50 0,0
25.09.2018 14:00:00 12,0 6,3 - - 55 30 76 41 SSW 1020,0 45 0,0
25.09.2018 13:00:00 12,4 4,9 - - 39 21 67 36 SSW 1021,9 35 0,0
25.09.2018 12:00:00 12,6 4,1 - - 41 22 61 33 SSW 1023,1 40 0,0
25.09.2018 11:00:00 11,4 4,8 - - 22 12 - - SSW 1024,8 40 0,0
25.09.2018 10:00:00 11,1 5,4 11,0 11,2 26 14 - - SSW 1025,8 50 0,0
25.09.2018 09:00:00 11,0 6,2 - - 29 16 - - S 1026,2 40 0,0
25.09.2018 08:00:00 9,4 6,9 - - 15 8 - - SSW 1027,6 30 0,0
25.09.2018 07:00:00 7,7 5,2 - - 13 7 - - SSW 1028,3 50 0,0
25.09.2018 06:00:00 5,6 3,9 - - 8 4 - - WNW 1029,5 50 0,0
25.09.2018 05:00:00 7,3 5,3 - - 8 4 - - WSW 1029,9 35 0,0
25.09.2018 04:00:00 7,5 5,6 - - 8 4 - - E 1030,6 45 0,0
25.09.2018 03:00:00 9,5 6,4 - - 15 8 - - SSW 1030,7 50 0,0
25.09.2018 02:00:00 10,5 6,7 - - 26 14 - - SW 1030,7 50 0,0
25.09.2018 01:00:00 8,9 6,0 - - 9 5 - - SW 1032,0 50 0,0
25.09.2018 00:00:00 10,1 6,9 - - 18 10 - - SW 1031,9 50 0,0
24.09.2018 23:00:00 10,2 6,8 - - 16 9 - - SW 1032,3 50 0,0
24.09.2018 22:00:00 10,4 6,3 - - 18 10 - - SW 1032,5 50 0,0
24.09.2018 21:00:00 10,0 6,5 - - 16 9 - - SW 1032,6 40 0,0
24.09.2018 20:00:00 9,5 5,8 - - 11 6 - - SSW 1032,7 40 0,0
24.09.2018 19:00:00 10,8 5,6 - - 15 8 - - WSW 1032,6 45 0,0
24.09.2018 18:00:00 11,8 5,7 - - 18 10 - - WSW 1032,5 35 0,0
24.09.2018 17:00:00 12,0 6,4 - - 9 5 - - W 1032,8 50 0,0
24.09.2018 16:00:00 11,9 5,6 - - 9 5 - - W 1032,8 50 0,0
24.09.2018 15:00:00 12,5 6,3 - - 21 11 - - W 1033,0 35 0,0
24.09.2018 14:00:00 12,6 4,4 - - 21 11 - - WNW 1033,0 40 0,0
24.09.2018 13:00:00 11,3 6,0 - - 18 10 - - WNW 1033,2 50 0,0
24.09.2018 12:00:00 10,7 6,6 - - 26 14 48 26 W 1033,0 35 0,2
24.09.2018 11:00:00 11,5 5,7 - - 16 9 - - WNW 1032,7 40 0,0
24.09.2018 10:00:00 10,5 5,5 11,0 11,4 13 7 - - SW 1032,4 45 0,0
24.09.2018 09:00:00 8,8 5,6 - - 9 5 - - WSW 1031,8 45 0,0
24.09.2018 08:00:00 6,0 4,5 - - 15 8 - - SW 1031,5 50 0,0
24.09.2018 07:00:00 6,6 4,2 - - 21 11 - - W 1031,1 50 0,0
24.09.2018 06:00:00 5,1 3,4 - - 13 7 - - W 1030,5 40 0,0
24.09.2018 05:00:00 5,1 4,1 - - 15 8 - - W 1030,7 50 0,0
24.09.2018 04:00:00 6,6 4,5 - - 13 7 - - WSW 1030,2 50 0,0
24.09.2018 03:00:00 4,5 2,6 - - 13 7 - - SW 1029,8 50 0,0
24.09.2018 02:00:00 4,0 1,9 - - 9 5 - - WSW 1029,6 50 0,0
24.09.2018 01:00:00 5,5 2,9 - - 16 9 - - WSW 1029,0 50 0,0
24.09.2018 00:00:00 4,3 2,0 - - 13 7 - - SSW 1028,4 45 0,0
23.09.2018 23:00:00 4,8 2,5 - - 15 8 - - SW 1027,8 50 0,0
23.09.2018 22:00:00 4,2 2,5 - - 11 6 - - WSW 1027,3 35 0,0
23.09.2018 21:00:00 6,7 3,4 - - 15 8 - - W 1026,9 26 0,0
23.09.2018 20:00:00 6,9 3,9 - - 16 9 - - W 1026,3 50 0,2
23.09.2018 19:00:00 8,0 4,4 - - 22 12 - - WNW 1025,2 50 0,0
23.09.2018 18:00:00 10,0 4,9 - - 21 11 - - WNW 1023,9 50 0,0
23.09.2018 17:00:00 10,8 5,3 - - 24 13 50 27 NW 1022,9 50 0,0
23.09.2018 16:00:00 11,1 5,7 - - 21 11 - - WNW 1022,1 35 0,0
23.09.2018 15:00:00 9,6 5,3 - - 24 13 50 27 WNW 1021,6 45 0,6
23.09.2018 14:00:00 10,7 6,8 - - 22 12 - - WNW 1020,8 50 0,6
23.09.2018 13:00:00 11,3 5,6 - - 21 11 - - WNW 1020,3 50 0,0
23.09.2018 12:00:00 10,2 4,9 - - 28 15 - - WNW 1019,7 45 0,0
23.09.2018 11:00:00 9,3 6,2 - - 16 9 - - W 1019,1 50 0,0
23.09.2018 10:00:00 8,0 4,8 11,2 11,7 21 11 - - WNW 1018,4 50 0,0
23.09.2018 09:00:00 6,5 4,3 - - 13 7 - - W 1017,6 50 0,0
23.09.2018 08:00:00 6,8 4,9 - - 18 10 - - W 1017,0 45 0,0
23.09.2018 07:00:00 6,4 4,6 - - 15 8 - - WNW 1016,6 50 0,0
23.09.2018 06:00:00 6,4 4,6 - - 16 9 - - NW 1016,2 25 0,0
23.09.2018 05:00:00 6,2 3,9 - - 16 9 - - W 1015,7 50 0,0
23.09.2018 04:00:00 5,2 3,4 - - 13 7 - - WNW 1015,8 50 0,0
23.09.2018 03:00:00 6,6 4,3 - - 15 8 - - W 1015,7 40 0,0
23.09.2018 02:00:00 6,0 3,8 - - 8 4 - - W 1015,6 45 0,0
23.09.2018 01:00:00 5,4 3,5 - - 13 7 - - W 1015,5 45 0,0
23.09.2018 00:00:00 6,6 3,8 - - 13 7 - - W 1015,2 45 0,0
22.09.2018 23:00:00 7,1 4,8 - - 15 8 - - W 1014,9 35 0,0
22.09.2018 22:00:00 7,7 4,5 - - 11 6 - - W 1014,6 30 0,0
22.09.2018 21:00:00 7,2 5,3 - - 11 6 - - SW 1014,2 50 0,0
22.09.2018 20:00:00 7,9 5,2 - - 9 5 - - WSW 1013,6 45 0,0
22.09.2018 19:00:00 8,6 5,3 - - 21 11 - - W 1012,9 45 0,0
22.09.2018 18:00:00 9,1 7,0 - - 15 8 - - W 1012,4 30 0,6
22.09.2018 17:00:00 9,5 5,8 - - 24 13 - - WNW 1012,3 50 0,0
22.09.2018 16:00:00 9,5 6,0 - - 24 13 - - NW 1012,0 50 0,0
22.09.2018 15:00:00 9,8 6,3 - - 29 16 - - W 1011,5 16 0,0
22.09.2018 14:00:00 12,0 7,3 - - 31 17 52 28 W 1010,8 50 0,0
22.09.2018 13:00:00 12,0 6,4 - - 34 18 52 28 W 1010,1 30 0,0
22.09.2018 12:00:00 10,9 6,4 - - 34 18 55 30 W 1009,6 28 0,0
22.09.2018 11:00:00 11,5 6,7 - - 35 19 48 26 W 1009,2 30 0,0
22.09.2018 10:00:00 10,7 7,5 11,5 11,7 34 18 50 27 W 1008,6 40 0,0
22.09.2018 09:00:00 9,3 7,8 - - 29 16 - - W 1007,9 45 0,8
22.09.2018 08:00:00 8,8 7,1 - - 26 14 59 32 W 1007,1 13 0,6
22.09.2018 07:00:00 8,9 4,5 - - 28 15 52 28 W 1006,2 40 0,0
22.09.2018 06:00:00 8,8 3,3 - - 26 14 52 28 WSW 1005,5 50 0,0
22.09.2018 05:00:00 8,7 3,6 - - 26 14 54 29 WSW 1005,1 50 0,0
22.09.2018 04:00:00 8,8 3,0 - - 24 13 - - W 1005,3 45 0,0
22.09.2018 03:00:00 8,8 3,4 - - 24 13 - - W 1005,0 35 0,0
22.09.2018 02:00:00 7,8 3,7 - - 21 11 57 31 SW 1004,6 50 0,0
22.09.2018 01:00:00 9,1 3,8 - - 29 16 - - W 1004,2 35 0,0
22.09.2018 00:00:00 8,1 3,9 - - 29 16 - - WSW 1003,7 50 0,0
21.09.2018 23:00:00 6,8 3,5 - - 21 11 - - SSW 1003,7 50 0,0
21.09.2018 22:00:00 7,7 4,0 - - 15 8 - - WSW 1003,4 50 0,0
21.09.2018 21:00:00 7,4 4,5 - - 11 6 - - W 1003,2 45 0,0
21.09.2018 20:00:00 7,6 4,4 - - 18 10 - - SSW 1002,5 50 0,0
21.09.2018 19:00:00 9,2 4,9 - - 18 10 - - WSW 1002,0 45 0,0
21.09.2018 18:00:00 10,1 5,2 - - 28 15 61 33 W 1001,8 50 0,0
21.09.2018 17:00:00 11,8 3,8 - - 35 19 50 27 WNW 1000,5 35 0,0
21.09.2018 16:00:00 12,1 6,1 - - 29 16 48 26 W 1000,1 35 0,0
21.09.2018 15:00:00 11,0 3,1 - - 35 19 50 27 NW 998,9 40 0,0
21.09.2018 14:00:00 11,7 5,3 - - 37 20 48 26 NW 997,8 30 0,0
21.09.2018 13:00:00 10,0 4,9 - - 34 18 54 29 NW 996,9 45 0,0
21.09.2018 12:00:00 10,0 6,5 - - 29 16 - - NW 995,4 35 0,0
21.09.2018 11:00:00 8,9 7,4 - - 22 12 - - WNW 994,3 35 0,0
21.09.2018 10:00:00 8,4 6,9 11,9 11,9 24 13 - - NW 993,3 35 0,6
21.09.2018 09:00:00 7,8 6,5 - - 26 14 - - WNW 992,4 9 2,2
21.09.2018 08:00:00 7,9 6,0 - - 26 14 - - NW 991,5 14 0,0
21.09.2018 07:00:00 8,7 7,1 - - 26 14 - - WNW 991,0 50 0,0
21.09.2018 06:00:00 7,9 6,8 - - 15 8 - - W 991,1 40 0,0
21.09.2018 05:00:00 7,8 6,5 - - 13 7 - - W 991,5 23 0,4
21.09.2018 04:00:00 7,3 6,9 - - 8 4 - - W 992,3 11 2,8
21.09.2018 03:00:00 7,2 6,4 - - 4 2 - - WNW 993,2 8 1,2
21.09.2018 02:00:00 7,2 6,2 - - 2 1 - - W 994,0 11 0,6
21.09.2018 01:00:00 7,0 5,8 - - 2 1 - - W 994,3 35 0,0
21.09.2018 00:00:00 7,2 6,0 - - 5 3 - - SW 995,2 40 0,0
20.09.2018 23:00:00 7,8 5,9 - - 4 2 - - SSW 996,1 40 0,0
20.09.2018 22:00:00 7,6 5,8 - - 4 2 - - SE 996,4 29 0,0
20.09.2018 21:00:00 8,7 5,9 - - 5 3 - - SW 997,3 40 0,0
20.09.2018 20:00:00 9,4 5,7 - - 8 4 - - NNW 997,5 25 0,0
20.09.2018 19:00:00 11,4 5,4 - - 15 8 - - WSW 998,1 35 0,0
20.09.2018 18:00:00 12,2 5,6 - - 15 8 - - SW 998,7 29 0,0
20.09.2018 17:00:00 13,1 5,5 - - 22 12 46 25 W 998,8 45 0,0
20.09.2018 16:00:00 13,1 5,7 - - 34 18 50 27 WSW 998,4 30 0,0
20.09.2018 15:00:00 14,4 6,0 - - 35 19 55 30 WSW 998,7 40 0,0
20.09.2018 14:00:00 14,4 6,7 - - 34 18 65 35 WSW 998,5 30 0,0
20.09.2018 13:00:00 13,1 5,4 - - 42 23 76 41 WSW 997,7 45 0,0
20.09.2018 12:00:00 13,0 4,7 - - 41 22 74 40 WSW 997,0 45 0,0
20.09.2018 11:00:00 13,3 5,2 - - 42 23 68 37 SW 996,0 30 0,0
20.09.2018 10:00:00 12,6 6,2 12,0 12,0 29 16 59 32 SSW 996,0 30 0,0
20.09.2018 09:00:00 10,4 5,2 - - 39 21 59 32 SW 995,8 40 0,0
20.09.2018 08:00:00 9,4 5,2 - - 37 20 57 31 SW 995,5 30 0,0
20.09.2018 07:00:00 8,8 5,2 - - 24 13 52 28 SW 995,6 40 0,0
20.09.2018 06:00:00 8,6 5,5 - - 21 11 - - SW 994,9 45 0,0
20.09.2018 05:00:00 8,2 6,0 - - 16 9 - - SSW 995,3 29 0,6
20.09.2018 04:00:00 8,7 6,4 - - 22 12 - - SW 995,1 12 0,0

tt = temperature
td = dewpoint
tt -20cm = temperature -20cm
tt -100cm = temperature -100cm
ff = wind speed
fx = gusts
dd = wind direction
ppp = reduced air pressure
vv = visibility
rr = precipitation

Next stations